Vorticity
10 11 11 12 13 14 16 17 18 19 19 19 18 17 16 15 14 12 12 11 10 10 10 10 11 11 12 12 13 14 15 17 18 20 21 22 22 22 21 20 19 17 16 16 16 16 17 17 18 20 21 22 22 21 20 18 16 13 11 8 7 6 5 6 7 8 9 9 8
11 12 13 14 15 16 17 18 19 19 18 17 16 15 14 13 12 12 11 11 11 11 11 12 12 13 13 13 13 14 15 16 18 19 21 22 22 23 22 22 20 19 17 17 16 16 16 16 17 18 20 21 21 22 21 19 17 14 12 9 8 6 6 6 8 9 9 9 8
12 13 14 15 17 18 18 19 18 18 17 16 14 13 12 12 11 11 11 11 12 12 13 13 13 14 14 13 13 13 14 15 17 19 21 22 23 23 23 23 22 20 19 17 17 16 16 16 16 17 19 20 21 21 21 21 18 15 13 11 9 7 6 7 8 9 9 9 8
14 15 16 17 18 18 18 18 17 16 15 14 13 12 12 11 11 11 12 12 13 13 14 14 14 14 14 13 13 13 13 14 16 18 20 22 23 23 23 23 22 21 20 19 18 17 16 16 16 16 17 19 20 20 21 21 19 16 13 12 10 8 7 8 8 9 9 9 8
15 16 17 17 18 18 17 17 16 15 14 12 12 11 11 11 12 12 13 13 14 14 14 15 14 14 14 13 13 12 12 12 14 16 19 21 23 24 24 23 23 22 21 20 18 18 17 17 16 16 16 17 18 19 20 21 19 17 15 13 10 9 8 8 9 10 10 9 8
16 17 17 18 18 17 16 15 14 13 12 12 11 11 12 12 12 13 14 14 14 14 15 15 15 14 14 14 13 12 12 12 13 14 17 20 22 24 24 24 23 22 21 20 19 19 18 17 17 16 16 16 17 18 20 20 20 18 17 14 12 10 9 9 10 10 10 9 8
17 17 17 17 17 16 15 14 13 12 12 11 12 12 12 13 13 14 14 14 14 15 15 15 15 15 14 14 14 13 12 12 12 13 15 18 21 23 25 25 24 23 22 21 20 19 19 18 17 17 16 16 17 18 19 20 19 19 17 15 13 11 9 10 10 11 10 9 8
17 17 17 16 16 15 14 13 12 12 11 12 12 12 13 13 14 14 14 15 15 15 15 15 15 15 15 15 15 14 14 13 13 13 14 16 19 22 24 25 25 23 22 21 21 20 20 19 18 17 17 16 16 17 18 19 19 18 17 16 15 12 10 10 11 11 11 10 9
17 17 16 15 15 14 13 12 12 11 11 12 12 13 13 14 14 14 15 15 15 14 14 14 14 15 15 15 15 15 15 14 13 13 13 15 17 21 23 25 25 24 23 22 21 21 20 20 19 18 17 16 16 16 18 19 19 18 17 16 15 13 11 10 11 11 11 10 9
16 16 15 14 14 13 12 12 12 12 12 12 13 13 14 14 14 14 14 14 14 14 14 14 14 14 14 14 15 15 15 15 14 14 13 14 16 19 22 25 26 25 24 23 22 21 20 20 20 19 17 16 16 16 17 18 19 19 18 17 16 14 13 11 11 12 12 11 10
15 15 14 13 13 12 12 11 12 12 12 13 13 14 14 14 14 14 14 14 14 14 14 14 14 14 14 14 14 14 14 14 14 14 14 14 15 17 20 23 25 26 25 24 22 21 20 20 20 19 18 16 16 16 17 18 18 18 18 17 16 14 13 12 12 12 12 11 10
14 14 13 13 12 12 12 12 12 12 13 13 14 14 14 14 14 14 14 15 15 15 15 14 14 14 14 14 14 14 14 14 14 14 14 14 14 16 18 21 25 26 26 25 23 22 21 20 20 20 18 17 16 16 17 17 18 18 18 18 16 15 14 13 13 13 13 12 11
14 13 12 12 12 12 12 12 12 13 13 14 14 14 14 15 15 15 15 15 15 15 15 15 15 15 14 14 14 14 14 14 14 14 14 14 14 15 16 19 23 25 27 26 24 22 21 20 20 19 19 18 17 16 17 18 18 18 18 18 17 15 14 13 13 13 13 12 11
13 12 12 12 12 12 12 12 13 13 14 14 14 14 14 15 15 15 15 15 15 15 15 15 15 15 15 15 14 14 14 14 14 14 14 14 14 14 15 17 21 24 26 27 25 23 22 21 20 19 19 18 17 17 17 18 18 18 18 18 17 16 14 14 13 14 13 13 11
12 12 12 12 12 12 13 13 13 13 14 14 14 14 14 14 14 14 14 14 14 14 15 15 15 15 15 15 14 14 14 14 13 13 14 14 14 14 14 16 19 22 25 27 26 24 23 21 20 19 19 19 18 18 17 18 18 18 18 18 17 16 15 14 14 14 14 13 12
12 12 12 12 12 13 13 13 13 13 13 13 13 13 13 13 12 12 12 13 13 13 13 13 14 14 14 14 14 14 14 13 13 13 13 14 14 14 14 15 17 20 23 26 26 25 23 21 20 19 19 19 19 18 18 18 19 19 18 18 17 16 15 14 14 14 14 13 13
12 12 12 12 13 13 13 13 13 13 13 12 12 12 12 11 11 11 11 11 11 11 11 12 12 12 12 12 13 13 13 13 13 13 13 13 14 14 14 14 15 18 21 25 26 26 24 22 21 20 20 20 19 18 18 19 19 19 18 17 17 16 15 14 14 14 14 14 13
12 12 12 13 13 13 13 13 12 12 12 11 11 11 10 10 10 10 10 9 9 10 10 10 10 10 11 11 11 11 11 12 12 12 13 13 14 14 14 14 15 16 19 23 25 26 25 23 21 20 20 20 18 18 18 19 19 18 17 17 16 15 15 14 14 14 14 14 13
12 12 13 13 13 13 13 12 12 11 11 11 10 10 10 10 9 9 9 9 9 9 9 9 9 9 9 10 10 10 10 10 11 12 12 13 14 14 15 15 15 16 18 21 24 25 25 24 22 21 20 20 18 18 18 19 19 18 17 17 16 15 15 14 14 14 14 14 13
12 13 13 13 13 13 12 12 11 11 11 10 10 10 10 9 9 9 8 8 8 8 8 8 8 8 9 9 9 9 9 9 10 11 12 13 14 15 15 15 15 15 16 19 22 24 25 24 22 21 20 20 19 18 19 20 19 18 17 17 16 16 15 15 14 14 14 14 13
13 13 13 13 13 12 12 11 11 11 10 10 10 10 10 10 9 9 9 8 8 8 8 8 8 9 9 9 9 9 9 9 9 10 11 13 14 15 16 16 16 16 16 17 20 23 24 24 23 22 21 20 19 19 20 20 20 19 18 17 16 16 15 15 15 14 14 14 13
14 14 13 13 13 12 12 11 11 11 11 11 11 11 10 10 10 10 9 9 9 9 9 9 10 10 10 10 10 10 10 10 10 10 11 13 15 16 17 17 17 16 16 16 19 21 23 24 23 22 21 20 20 20 20 21 20 19 18 16 16 15 15 15 15 14 13 13 13
14 14 13 13 12 12 11 11 11 11 11 11 11 11 11 11 11 11 11 11 11 11 11 11 11 11 11 11 11 11 11 11 11 12 13 15 16 17 18 18 17 17 16 16 18 20 22 23 23 22 21 20 20 20 21 21 21 19 18 16 16 16 15 16 15 14 13 13 13
14 13 13 12 12 11 11 11 11 11 12 12 12 12 12 12 12 12 12 12 12 13 13 13 13 13 13 12 12 12 12 12 13 14 16 17 18 19 19 18 18 17 16 15 16 19 21 22 22 22 21 21 20 21 22 22 21 19 17 16 16 16 16 16 15 14 13 13 13
13 13 12 11 11 11 11 11 12 12 12 12 12 12 12 12 12 12 13 13 14 14 14 14 14 14 14 13 13 13 14 15 16 18 20 21 22 21 20 19 18 17 16 15 16 17 19 21 21 22 22 21 21 21 22 22 21 19 17 15 16 16 16 16 15 14 13 13 13
13 12 11 11 11 11 11 12 12 12 12 12 12 12 12 12 12 13 13 14 15 15 15 15 15 14 14 14 14 15 17 19 22 24 25 26 25 24 22 20 19 17 16 15 15 16 18 19 21 23 24 21 20 20 21 22 22 19 17 14 15 16 17 17 16 14 13 12 12
12 11 11 11 11 12 12 12 12 11 11 11 11 11 11 12 13 13 14 15 15 16 16 15 15 15 15 16 18 20 23 26 29 31 31 31 28 26 23 21 19 17 16 15 15 16 18 21 20 20 22 22 19 19 20 23 23 20 16 14 16 17 17 17 16 14 13 12 12
11 11 11 12 12 12 12 11 11 11 10 10 10 11 11 12 13 14 15 16 16 16 16 15 15 16 17 20 24 28 32 35 37 38 37 34 31 28 25 22 19 17 15 14 15 16 18 21 17 18 21 24 21 21 22 25 24 20 16 14 16 17 18 17 16 14 13 12 12
11 12 12 12 12 11 11 10 10 10 10 10 10 11 12 13 15 16 16 16 16 16 16 16 17 20 24 29 34 39 42 45 45 43 41 37 33 29 26 22 18 16 15 14 15 16 16 15 15 18 21 22 22 22 23 25 24 19 15 13 16 18 18 18 16 15 13 12 12
12 12 12 12 11 11 10 10 9 9 9 10 11 12 13 14 15 16 16 16 16 16 17 18 22 27 33 39 44 48 50 51 49 46 42 38 33 29 26 21 17 15 14 14 15 18 19 13 11 12 15 17 19 20 22 24 23 19 15 14 16 18 19 18 16 15 14 13 13
12 12 11 11 11 10 10 9 9 9 9 10 11 13 14 15 16 16 16 16 16 17 19 23 29 36 42 48 51 53 53 53 50 47 42 37 33 29 24 20 17 15 14 14 14 20 23 11 10 10 12 14 17 18 20 21 22 19 16 16 18 19 20 18 16 14 13 12 12
12 11 11 10 10 10 9 9 9 9 9 10 12 13 15 16 16 16 16 16 17 19 23 30 37 44 48 52 53 53 53 52 49 45 40 35 32 27 22 18 16 14 14 13 13 16 18 15 9 8 9 11 15 17 19 19 20 19 17 16 19 21 21 19 16 14 13 12 12
11 11 10 10 9 9 9 9 9 9 10 11 13 14 15 16 16 16 16 17 19 23 29 36 43 48 50 51 51 51 50 49 46 42 38 33 30 25 21 16 14 13 12 12 13 9 7 17 14 12 12 12 15 17 19 18 19 17 16 16 20 22 22 19 16 14 12 11 11
11 10 10 10 9 9 9 9 9 10 11 12 14 15 16 16 16 16 16 18 22 27 34 41 47 49 49 48 48 47 47 45 43 39 35 31 28 24 19 15 13 12 11 10 11 7 4 12 14 14 13 13 15 17 19 19 18 16 15 16 21 23 22 19 16 14 12 11 11
10 10 9 9 9 9 9 9 10 11 12 13 14 15 16 16 16 16 17 19 24 31 38 45 49 49 47 45 44 44 43 41 39 36 32 29 26 22 17 14 13 11 10 9 9 6 4 9 13 15 14 13 14 16 19 21 20 18 16 17 22 24 23 20 17 15 13 12 12
10 9 9 9 9 9 9 10 11 12 13 14 15 16 16 16 16 17 18 21 27 34 41 47 49 48 44 41 40 40 39 38 36 33 30 27 24 20 16 13 13 11 10 9 7 5 5 10 15 18 18 17 16 17 19 22 22 20 19 19 22 24 23 20 17 15 13 12 12
9 9 9 9 10 10 10 11 11 12 13 14 15 16 16 16 16 17 19 23 30 37 43 48 48 46 41 38 37 37 36 35 33 30 27 24 22 18 15 12 12 12 11 9 7 4 3 7 13 19 22 22 20 20 21 23 23 22 21 20 23 23 22 19 17 15 13 11 11
9 9 9 10 10 11 11 11 11 12 13 14 15 16 17 16 16 17 20 25 32 38 44 48 47 43 39 35 34 34 34 33 31 28 25 23 20 17 14 12 12 12 12 10 9 5 2 3 10 16 21 24 23 22 22 22 23 23 22 22 24 23 21 18 17 15 13 10 10
9 9 10 11 11 12 12 12 12 12 12 13 15 16 17 17 17 18 21 27 34 40 44 46 45 41 37 32 32 31 31 31 29 26 24 21 18 16 13 11 11 12 12 11 10 8 4 2 6 11 17 22 23 22 22 21 22 23 23 24 24 23 20 18 17 16 13 10 9
9 9 10 11 12 13 13 12 12 11 12 13 15 16 17 17 17 19 22 28 35 41 44 45 43 39 35 31 30 30 30 29 27 25 22 19 17 15 12 10 10 11 12 11 11 10 8 3 4 7 12 19 20 21 21 20 21 22 24 24 24 23 20 18 18 16 14 11 9
9 10 11 12 13 13 13 12 11 11 11 13 15 16 17 17 17 19 23 29 36 41 44 43 41 38 34 30 29 28 28 28 26 23 21 18 16 14 12 10 9 10 10 11 11 11 10 8 9 9 11 16 18 20 20 20 20 22 23 25 24 22 20 19 18 17 15 12 9
Height
5504 5500 5497 5494 5490 5487 5483 5480 5477 5474 5470 5468 5465 5462 5460 5458 5455 5453 5450 5448 5446 5444 5442 5439 5438 5435 5433 5431 5429 5427 5426 5424 5422 5421 5419 5418 5417 5416 5415 5414 5414 5414 5414 5414 5414 5414 5414 5414 5414 5415 5416 5417 5418 5420 5421 5423 5425 5427 5429 5432 5434 5435 5437 5439 5440 5441 5442 5443 5444
5501 5497 5494 5490 5487 5483 5480 5477 5474 5470 5468 5465 5462 5459 5457 5454 5452 5450 5448 5445 5443 5441 5439 5436 5434 5432 5430 5428 5426 5424 5422 5420 5419 5417 5415 5414 5413 5412 5411 5410 5410 5409 5409 5409 5409 5409 5409 5409 5410 5410 5411 5412 5414 5415 5416 5418 5420 5423 5425 5427 5429 5430 5432 5434 5435 5436 5438 5439 5440
5498 5494 5491 5487 5484 5480 5477 5474 5471 5468 5465 5462 5459 5457 5454 5452 5449 5447 5444 5442 5440 5437 5435 5433 5431 5429 5427 5424 5422 5420 5418 5416 5415 5413 5412 5410 5409 5408 5407 5406 5405 5405 5405 5405 5405 5405 5405 5405 5405 5406 5407 5408 5409 5410 5412 5413 5415 5418 5420 5422 5424 5426 5427 5429 5430 5432 5433 5434 5435
5495 5491 5488 5484 5481 5477 5474 5471 5468 5465 5462 5459 5457 5454 5451 5449 5446 5444 5442 5439 5437 5434 5432 5430 5428 5426 5424 5421 5419 5417 5415 5413 5411 5409 5408 5406 5405 5404 5403 5402 5401 5401 5400 5400 5400 5400 5400 5401 5401 5402 5403 5404 5405 5406 5407 5409 5411 5413 5415 5417 5419 5421 5423 5424 5426 5427 5429 5430 5431
5492 5488 5485 5481 5478 5474 5471 5468 5465 5462 5459 5457 5454 5451 5449 5446 5444 5441 5439 5436 5434 5431 5429 5427 5424 5422 5420 5418 5416 5414 5412 5410 5408 5406 5404 5403 5401 5400 5399 5398 5397 5396 5396 5396 5396 5396 5396 5396 5397 5398 5399 5400 5401 5402 5403 5404 5406 5408 5410 5412 5414 5416 5418 5420 5421 5423 5424 5426 5427
5489 5485 5482 5478 5475 5472 5469 5466 5463 5460 5457 5454 5451 5449 5446 5444 5441 5438 5436 5433 5431 5428 5426 5424 5421 5419 5417 5415 5413 5411 5409 5406 5404 5403 5401 5399 5398 5396 5395 5394 5393 5392 5392 5391 5391 5391 5392 5392 5393 5394 5395 5396 5397 5398 5399 5400 5402 5404 5406 5408 5410 5412 5414 5415 5417 5419 5420 5421 5422
5486 5482 5479 5475 5472 5469 5466 5463 5460 5457 5454 5452 5449 5446 5444 5441 5438 5435 5433 5430 5428 5425 5423 5421 5418 5416 5414 5412 5410 5408 5405 5403 5401 5399 5398 5396 5394 5393 5391 5390 5389 5388 5387 5387 5387 5387 5387 5388 5389 5390 5391 5392 5393 5394 5395 5396 5398 5399 5401 5403 5405 5407 5409 5411 5413 5414 5416 5417 5419
5484 5480 5477 5473 5470 5467 5464 5461 5458 5455 5452 5449 5446 5444 5441 5438 5435 5433 5430 5427 5425 5422 5420 5418 5415 5413 5411 5409 5406 5404 5402 5400 5398 5396 5394 5393 5391 5389 5388 5386 5385 5384 5383 5383 5383 5383 5383 5384 5385 5386 5387 5388 5389 5390 5391 5392 5394 5395 5397 5399 5400 5402 5404 5406 5409 5410 5412 5414 5414
5481 5478 5474 5471 5468 5464 5461 5459 5455 5452 5449 5447 5444 5441 5438 5435 5433 5430 5427 5424 5422 5419 5417 5414 5412 5410 5408 5405 5403 5401 5399 5397 5395 5393 5391 5389 5388 5386 5384 5383 5381 5380 5379 5379 5379 5379 5379 5380 5381 5382 5383 5384 5386 5387 5387 5388 5389 5391 5393 5394 5396 5398 5400 5402 5404 5406 5408 5409 5411
5479 5475 5472 5469 5465 5462 5459 5456 5453 5450 5447 5444 5441 5438 5435 5432 5430 5427 5424 5422 5419 5416 5414 5412 5409 5407 5404 5402 5400 5398 5396 5394 5392 5390 5388 5386 5384 5383 5381 5379 5378 5377 5376 5375 5375 5375 5375 5376 5377 5378 5379 5380 5382 5383 5384 5384 5386 5387 5389 5390 5392 5394 5396 5398 5400 5403 5404 5406 5407
5476 5473 5470 5467 5464 5460 5457 5454 5451 5448 5445 5442 5439 5436 5433 5430 5427 5424 5421 5419 5416 5414 5411 5409 5406 5404 5401 5399 5397 5395 5393 5390 5388 5386 5385 5383 5381 5379 5378 5376 5374 5373 5372 5372 5371 5371 5371 5372 5373 5374 5375 5377 5378 5379 5380 5381 5382 5383 5384 5386 5388 5390 5392 5394 5397 5399 5400 5402 5404
5474 5471 5468 5464 5461 5458 5455 5452 5449 5445 5442 5439 5436 5433 5430 5427 5424 5421 5419 5416 5413 5411 5408 5405 5403 5401 5399 5396 5394 5392 5389 5387 5385 5383 5381 5379 5378 5376 5374 5373 5371 5370 5369 5368 5368 5367 5368 5368 5369 5370 5371 5373 5374 5375 5376 5378 5379 5380 5381 5383 5384 5387 5389 5391 5393 5395 5397 5399 5400
5472 5469 5465 5462 5459 5456 5453 5449 5446 5443 5440 5437 5434 5431 5428 5424 5422 5419 5416 5413 5410 5408 5405 5403 5400 5398 5395 5393 5391 5389 5387 5384 5382 5380 5378 5376 5375 5373 5371 5369 5368 5367 5365 5364 5364 5364 5364 5364 5365 5366 5367 5369 5370 5372 5373 5374 5375 5377 5378 5379 5381 5383 5385 5387 5389 5391 5393 5395 5397
5470 5466 5463 5460 5457 5454 5450 5447 5444 5441 5438 5434 5431 5428 5425 5422 5419 5416 5413 5410 5408 5405 5402 5399 5397 5395 5392 5390 5388 5386 5384 5381 5379 5377 5375 5373 5371 5370 5368 5366 5365 5363 5362 5361 5360 5360 5360 5360 5361 5362 5363 5364 5366 5368 5369 5371 5372 5373 5374 5376 5378 5379 5381 5384 5386 5388 5390 5392 5393
5468 5464 5461 5458 5454 5451 5448 5445 5442 5438 5435 5432 5429 5425 5422 5419 5416 5413 5410 5407 5405 5402 5399 5397 5394 5392 5389 5387 5384 5382 5380 5378 5376 5374 5372 5370 5368 5367 5365 5363 5362 5360 5359 5358 5357 5357 5357 5357 5358 5359 5359 5360 5362 5364 5366 5368 5369 5370 5371 5373 5374 5376 5378 5380 5382 5384 5386 5388 5390
5466 5462 5459 5456 5452 5449 5446 5442 5439 5436 5432 5429 5426 5423 5419 5416 5413 5410 5407 5404 5402 5399 5396 5394 5391 5388 5386 5384 5381 5379 5377 5375 5373 5371 5369 5367 5365 5364 5362 5360 5359 5357 5356 5354 5354 5353 5353 5354 5354 5355 5356 5357 5359 5361 5363 5365 5366 5367 5368 5369 5370 5372 5374 5376 5379 5381 5383 5385 5387
5464 5461 5457 5454 5450 5447 5443 5440 5436 5433 5430 5426 5423 5420 5417 5414 5410 5407 5404 5401 5399 5396 5393 5390 5388 5385 5383 5380 5378 5376 5374 5372 5370 5368 5366 5364 5362 5360 5359 5357 5355 5354 5353 5351 5350 5350 5350 5351 5351 5351 5352 5354 5355 5358 5360 5361 5363 5363 5364 5365 5367 5368 5371 5373 5375 5378 5380 5382 5384
5463 5459 5455 5452 5448 5445 5441 5438 5434 5431 5427 5424 5420 5417 5414 5411 5408 5404 5401 5398 5395 5393 5390 5387 5384 5382 5379 5377 5374 5372 5370 5368 5366 5364 5362 5360 5359 5357 5355 5353 5352 5351 5349 5349 5348 5347 5347 5347 5348 5348 5349 5350 5352 5354 5356 5358 5359 5359 5360 5361 5363 5365 5367 5370 5372 5375 5377 5379 5381
5461 5458 5454 5450 5447 5443 5439 5436 5432 5428 5425 5421 5418 5414 5411 5408 5404 5401 5398 5395 5392 5389 5386 5384 5381 5379 5376 5374 5371 5369 5367 5365 5363 5361 5359 5357 5355 5353 5351 5350 5348 5347 5346 5345 5344 5344 5344 5344 5344 5344 5345 5347 5348 5350 5352 5354 5355 5356 5357 5358 5360 5362 5364 5367 5369 5372 5374 5376 5378
5459 5456 5452 5449 5445 5441 5437 5434 5430 5426 5422 5419 5415 5412 5408 5405 5402 5399 5395 5392 5389 5386 5383 5380 5377 5374 5372 5370 5367 5365 5363 5361 5359 5357 5355 5354 5352 5350 5348 5346 5344 5344 5343 5342 5341 5341 5341 5341 5341 5341 5342 5344 5345 5347 5349 5350 5351 5353 5354 5355 5357 5359 5361 5364 5366 5369 5371 5373 5375
5458 5454 5450 5447 5443 5439 5435 5431 5428 5424 5420 5416 5413 5409 5405 5402 5399 5395 5392 5389 5385 5382 5379 5376 5373 5370 5368 5365 5363 5361 5359 5357 5355 5353 5351 5349 5348 5346 5344 5342 5341 5340 5339 5339 5338 5338 5338 5338 5338 5339 5339 5340 5342 5344 5345 5347 5348 5349 5351 5352 5354 5356 5358 5360 5363 5365 5368 5370 5372
5456 5452 5449 5444 5441 5437 5433 5429 5425 5421 5418 5414 5410 5407 5403 5399 5396 5392 5389 5385 5381 5378 5375 5372 5369 5366 5363 5360 5358 5356 5354 5352 5350 5349 5347 5345 5344 5342 5340 5339 5337 5336 5335 5335 5335 5335 5335 5335 5335 5335 5336 5337 5339 5341 5342 5343 5344 5346 5347 5349 5351 5353 5355 5357 5360 5362 5364 5367 5369
5454 5450 5447 5443 5439 5435 5431 5427 5423 5419 5416 5412 5408 5404 5400 5397 5393 5389 5385 5381 5378 5374 5370 5367 5364 5361 5358 5355 5353 5351 5349 5347 5345 5344 5342 5341 5339 5338 5336 5334 5333 5332 5332 5332 5332 5331 5332 5332 5332 5333 5334 5335 5336 5337 5338 5339 5341 5342 5344 5346 5348 5350 5352 5354 5357 5359 5361 5364 5366
5453 5449 5444 5440 5437 5433 5429 5425 5421 5417 5414 5409 5406 5402 5398 5394 5389 5385 5382 5378 5374 5370 5366 5362 5359 5356 5353 5350 5347 5345 5343 5341 5340 5339 5337 5336 5334 5333 5332 5330 5329 5329 5328 5328 5328 5328 5329 5329 5329 5330 5331 5332 5333 5333 5334 5335 5337 5339 5341 5344 5345 5347 5349 5351 5354 5356 5358 5360 5363
5451 5447 5443 5439 5435 5431 5427 5423 5419 5415 5411 5407 5403 5399 5395 5390 5386 5382 5378 5374 5369 5365 5361 5357 5354 5350 5347 5344 5341 5339 5337 5335 5334 5333 5332 5330 5329 5328 5327 5326 5325 5325 5325 5325 5325 5325 5326 5327 5328 5329 5329 5329 5329 5329 5331 5332 5334 5336 5339 5341 5343 5344 5346 5348 5350 5353 5355 5357 5359
5449 5445 5441 5437 5433 5429 5425 5421 5417 5413 5409 5405 5400 5396 5392 5387 5383 5378 5374 5369 5365 5360 5356 5352 5348 5345 5341 5338 5335 5332 5330 5328 5327 5326 5325 5325 5324 5323 5322 5321 5321 5321 5321 5321 5322 5323 5324 5325 5327 5328 5327 5324 5325 5327 5328 5329 5331 5333 5336 5339 5340 5341 5343 5345 5347 5349 5352 5354 5357
5448 5444 5440 5436 5432 5428 5424 5419 5415 5411 5406 5402 5398 5393 5388 5384 5379 5374 5369 5365 5360 5356 5351 5347 5343 5339 5335 5331 5328 5325 5323 5321 5320 5319 5319 5319 5319 5318 5318 5317 5316 5316 5317 5318 5319 5320 5321 5323 5327 5326 5323 5321 5323 5324 5325 5327 5329 5331 5334 5336 5338 5339 5340 5342 5344 5347 5349 5351 5354
5446 5443 5439 5435 5430 5426 5422 5418 5413 5409 5404 5399 5394 5389 5384 5380 5375 5370 5365 5360 5355 5351 5346 5341 5337 5332 5328 5324 5321 5318 5315 5313 5312 5312 5312 5312 5313 5313 5313 5313 5312 5313 5314 5315 5316 5318 5319 5322 5326 5324 5319 5319 5320 5321 5323 5324 5326 5329 5331 5334 5335 5335 5337 5339 5342 5344 5346 5349 5351
5446 5442 5438 5434 5429 5424 5420 5415 5411 5406 5401 5396 5391 5386 5381 5376 5371 5366 5361 5356 5351 5345 5340 5335 5330 5325 5320 5316 5313 5309 5307 5305 5305 5305 5305 5306 5307 5308 5309 5308 5309 5309 5310 5312 5314 5315 5318 5321 5323 5320 5317 5317 5318 5319 5320 5321 5324 5326 5329 5331 5332 5333 5334 5336 5339 5342 5344 5347 5349
5445 5441 5436 5432 5427 5423 5418 5413 5408 5403 5398 5393 5388 5383 5378 5373 5367 5362 5356 5351 5345 5340 5334 5329 5323 5318 5313 5308 5304 5301 5299 5298 5298 5298 5299 5300 5302 5304 5304 5304 5305 5306 5307 5309 5311 5313 5315 5318 5319 5317 5315 5315 5315 5316 5317 5319 5321 5324 5326 5328 5329 5330 5331 5333 5337 5339 5341 5344 5347
5444 5439 5435 5430 5426 5421 5416 5411 5406 5401 5396 5391 5385 5380 5375 5369 5363 5358 5352 5346 5340 5334 5329 5323 5317 5311 5306 5301 5297 5294 5293 5292 5292 5292 5294 5296 5298 5299 5300 5300 5302 5303 5305 5306 5308 5311 5313 5314 5313 5312 5312 5312 5313 5314 5315 5317 5319 5321 5323 5325 5326 5327 5328 5330 5334 5336 5339 5342 5344
5443 5438 5433 5429 5424 5419 5414 5409 5404 5399 5394 5388 5383 5377 5372 5366 5360 5354 5348 5341 5335 5329 5323 5316 5310 5304 5299 5295 5292 5289 5288 5287 5287 5288 5289 5291 5294 5296 5297 5298 5299 5300 5302 5304 5305 5309 5312 5312 5309 5308 5309 5309 5310 5312 5313 5314 5316 5318 5320 5322 5323 5324 5325 5328 5331 5334 5336 5339 5342
5441 5437 5432 5428 5423 5418 5413 5408 5403 5397 5392 5386 5381 5375 5369 5363 5356 5350 5344 5337 5330 5324 5317 5311 5304 5299 5294 5290 5288 5285 5284 5284 5284 5285 5286 5288 5291 5293 5294 5295 5297 5298 5299 5301 5303 5307 5310 5309 5306 5306 5307 5308 5309 5310 5311 5312 5314 5316 5318 5319 5320 5321 5323 5325 5329 5332 5334 5337 5340
5441 5436 5431 5426 5422 5417 5412 5407 5401 5396 5390 5384 5378 5372 5366 5359 5353 5346 5340 5333 5326 5319 5313 5306 5300 5295 5291 5288 5285 5283 5282 5281 5282 5283 5284 5286 5288 5290 5292 5294 5295 5296 5298 5299 5301 5304 5308 5307 5304 5304 5305 5306 5307 5308 5309 5310 5312 5314 5315 5317 5317 5318 5320 5322 5327 5331 5334 5336 5338
5440 5435 5430 5426 5421 5416 5411 5406 5401 5395 5389 5383 5376 5370 5363 5357 5350 5344 5337 5329 5323 5316 5309 5303 5298 5293 5289 5286 5284 5282 5281 5280 5281 5282 5283 5285 5287 5289 5291 5292 5294 5295 5296 5297 5299 5302 5305 5306 5302 5302 5303 5304 5305 5306 5307 5309 5310 5311 5313 5314 5315 5316 5318 5321 5325 5329 5334 5336 5338
5439 5434 5430 5425 5420 5415 5410 5405 5399 5394 5388 5381 5374 5368 5361 5354 5348 5341 5334 5327 5320 5313 5307 5301 5296 5292 5288 5285 5283 5282 5281 5280 5281 5281 5283 5284 5286 5288 5290 5291 5293 5294 5295 5296 5297 5300 5303 5304 5301 5300 5301 5302 5304 5304 5306 5307 5308 5309 5311 5312 5313 5314 5316 5320 5324 5327 5331 5334 5337
5439 5434 5429 5424 5420 5415 5409 5404 5398 5392 5386 5379 5373 5366 5359 5353 5346 5339 5331 5324 5317 5311 5305 5300 5295 5291 5288 5285 5283 5282 5281 5281 5281 5282 5283 5284 5286 5288 5289 5291 5292 5293 5294 5295 5296 5298 5302 5304 5302 5299 5299 5301 5302 5303 5304 5305 5306 5308 5309 5310 5311 5313 5315 5319 5322 5325 5328 5330 5334
5438 5434 5429 5424 5419 5414 5408 5403 5397 5390 5384 5378 5372 5365 5359 5352 5344 5337 5329 5322 5315 5309 5304 5299 5295 5291 5288 5286 5284 5283 5282 5282 5282 5283 5284 5284 5286 5287 5289 5290 5292 5293 5294 5294 5295 5297 5300 5303 5301 5299 5299 5300 5301 5302 5303 5304 5305 5306 5307 5308 5309 5311 5314 5317 5320 5322 5325 5328 5330
5438 5433 5428 5424 5418 5413 5407 5401 5395 5389 5383 5377 5371 5364 5358 5350 5343 5335 5328 5321 5314 5308 5303 5299 5295 5292 5289 5287 5285 5284 5283 5283 5283 5284 5284 5285 5286 5287 5289 5290 5291 5292 5293 5294 5294 5296 5299 5300 5299 5299 5299 5299 5300 5300 5301 5302 5303 5304 5305 5306 5308 5310 5312 5315 5318 5320 5323 5325 5328
5438 5433 5428 5423 5417 5412 5406 5400 5394 5389 5383 5377 5371 5364 5357 5350 5342 5335 5327 5320 5313 5307 5302 5298 5295 5292 5289 5288 5286 5285 5284 5284 5284 5284 5285 5285 5286 5288 5289 5290 5291 5292 5293 5294 5294 5295 5296 5296 5296 5297 5298 5298 5299 5299 5300 5301 5302 5303 5304 5305 5307 5309 5311 5313 5316 5318 5321 5323 5326
5437 5432 5427 5422 5417 5411 5406 5400 5394 5389 5383 5377 5370 5364 5357 5349 5342 5334 5327 5319 5313 5307 5302 5299 5295 5293 5290 5289 5287 5286 5285 5285 5285 5285 5285 5286 5287 5288 5289 5290 5291 5292 5293 5294 5294 5294 5295 5295 5295 5296 5296 5297 5298 5298 5299 5299 5300 5301 5302 5304 5305 5307 5309 5312 5314 5316 5319 5321 5324